User: anonymous   Login
Location: Unspecified
(0.0000°N, 0.0000°E)
Time: 02:11:54
(UTC+00:00)
Language:

STARLINK-34616 - Orbit

View from above orbital plane
View from above orbital plane
View from above satellite
View from above satellite

Ground track
Ground track

The orbit is defined by the following mean orbital elements,

1 66320U          26145.35311942 +.00000000 +00000-0 +89096-3 0 00001
2 66320  42.9987 139.1703 0001333 266.8271  93.2428 15.27590411    07
Epoch (UTC): 25 May 2026 08:28:29
Eccentricity: 0.0001333
inclination: 42.9987°
perigee height: 482 km
apogee height: 484 km
right ascension of ascending node: 139.1703°
argument of perigee: 266.8271°
revolutions per day: 15.27590411
mean anomaly at epoch: 93.2428°

The dashed part of the orbit path shows where the satellite is in the earth's shadow,  

DLR